BEIDOU-2 G7 (41586 NORAD) Tracking and Keplerian Element Data

This shows tracking and keplerian element data for the satellite.

Feedback or suggestion? Click here.




ElementValue
Catalog41586
NameBEIDOU-2 G7
Epoch Orbit1264
Epoch Day318.17606991
Epoch Year2019
RAAN53.5528
Inclination1.1017
Eccentricity0.0006307
Argument of Perigee359.1926
Mean Anonmoly174.1942
Mean Motion1.00276114
Decay Rate-3.4E-06
L11 41586U 16037A 19318.17606991 -.00000340 00000-0 00000+0 0 9999
L22 41586 1.1017 53.5528 0006307 359.1926 174.1942 1.00276114 12648

Live tracking and technical data element details for BEIDOU-2 G7 (NORAD 41586). BEIDOU-2 G7 can be tracked NOW for your location showing map with azimuth and elevation plus other details from your city location.

Track the satellite on the map from your city or location and see movement details for azimuth, elevation, latitude, longitude, range, height, and movement on the map or in text.







IsCatalogInMostPopularTable: catalog: 41586, numindb: 336
Update: records affected: 1



GetName: 41586 BEIDOU-2 G7

Hit Count: updated at: Sun, 17 Nov 2019 15:39:44 GMT